Regional Weather Roundup
Issued by NWS

Home | Current Version | Previous Version | Graphics & Text | Print | Product List | Glossary On
Versions: 1 2 3 4 5 6 7 8 9 10 11 12 13 14 15 16 17 18 19 20 21 22 23 24 25 26 27 28 29 30 31 32 33 34 35 36 37 38 39 40 41 42 43 44 45 46 47 48 49 50
000
ASUS43 KDTX 130110
RWRMI
MICHIGAN HOURLY REGIONAL WEATHER ROUNDUP
NATIONAL WEATHER SERVICE DETROIT/PONTIAC MI
800 PM EST FRI FEB 12 2016

NOTE: "FAIR" INDICATES FEW OR NO CLOUDS BELOW 12,000 FEET WITH NO
SIGNIFICANT WEATHER AND/OR OBSTRUCTION TO VISIBILITY.

MIZ047>049-052>055-059>063-066>070-074>076-081>083-130200-
SOUTHEAST LOWER MICHIGAN

CITY           SKY/WX    TMP DP  RH WIND       PRES   REMARKS
ADRIAN         PTCLDY    15   8  73 NW9G21    30.11R WCI   3
ALMA           MOCLDY    11   3  70 N14G23    30.16R WCI  -4
ANN ARBOR      PTCLDY    15   6  67 NW13      30.08R WCI   1
BAD AXE        LGT SNOW  11   2  69 NW23G30   30.07R WCI  -9
CARO           CLEAR     10   0  61 NW18G25   30.10R WCI  -8
DETROIT CITY   PTCLDY    17   5  59 NW12G17   30.06R WCI   4
DETROIT        MOCLDY    16   6  65 NW18G25   30.08R WCI   0
FLINT          MIX PCPN  13  -2  51 N20G35    30.11R WCI  -5
GROSSE ILE     CLOUDY    18  10  73 NW10G18   30.07R WCI   6
HILLSDALE      CLEAR     13   5  71 NW16G24   30.09R WCI  -4
HOWELL         LGT SNOW  14   8  76 N10G20    30.08R WCI   1

CITY           SKY/WX    TMP DP  RH WIND       PRES   REMARKS
JACKSON        MOCLDY    14   4  64 NW20G25   30.10R WCI  -3
LAMBERTVILLE   PTCLDY    16   9  74 NW8       30.11R WCI   5
LANSING        LGT SNOW  13   5  70 N15G25    30.13R WCI  -3
LAPEER         MOCLDY    12   5  73 N15G24    30.07R WCI  -4
MASON          CLOUDY    14   9  80 NW14G20   30.10R HAZE    WCI  -1
MONROE         CLEAR     17   7  63 NW14G21   30.08R WCI   3
MT. CLEMENS    FLURRIES  16   9  73 NW13      30.04R WCI   2
PONTIAC        LGT SNOW  13   6  74 NW18G28   30.05R WCI  -4
PORT HOPE        N/A     11   0  61 NW30G46   30.05R WCI -11
PORT HURON     CLEAR     14   9  79 NW12G20   30.04R WCI   0
TRI CITIES     PTCLDY    11  -3  53 NW20G28   30.14R WCI  -7
MIDLAND        FAIR      10  -4  52 NW13G28   30.15R WCI  -5
TROY           PTCLDY    17   7  64 NW14G23   30.07R WCI   3
SAGINAW HB     CLEAR     10   1  67 NW13      30.14R WCI  -5
$$
MIZ043>046-050>051-056>058-064>065-071>073-077>080-130200-
SOUTHWEST LOWER MICHIGAN

CITY           SKY/WX    TMP DP  RH WIND       PRES   REMARKS
BATTLE CREEK   PTCLDY    13   5  70 NW12      30.15R WCI  -1
BENTON HARBOR  LGT SNOW  17   6  62 NW16G28   30.24R WCI   2
BIG RAPIDS     MOCLDY     8  -1  65 N15G23    30.17R WCI  -9
COLDWATER      FLURRIES  15   9  76 NW12G22   30.14R WCI   1
FREMONT        LGT SNOW  10   6  84 N20       30.20R WCI  -9
HOLLAND        LGT SNOW  14   9  80 N13G23    30.22R WCI   0
GRAND RAPIDS   MOCLDY    13   4  67 N15G23    30.18R WCI  -3
IONIA          LGT SNOW  12   7  81 N15G26    30.15R WCI  -4
KALAMAZOO      LGT SNOW  15  10  80 NW9       30.16R VSB 1   WCI   3
LUDINGTON      LGT SNOW  10  -1  60 NW21G26   30.27R WCI  -9
MARSHALL       MOCLDY    14   6  71 NW13      30.12R WCI  -1
MOUNT PLEASANT PTCLDY    10  -2  57 NW13G22   30.16R WCI  -5
MUSKEGON       LGT SNOW  13   6  74 N28G36    30.24R VSB 1   WCI  -8
SOUTH HAVEN    LGT SNOW  17   8  67 NW17G32   30.22R WCI   1
$$
MIZ016>042-130200-
NORTHERN LOWER MICHIGAN

CITY           SKY/WX    TMP DP  RH WIND       PRES   REMARKS
ALPENA         MIX PCPN   4  -9  55 NW18G26   30.12R WCI -16
BEAVER ISLAND  CLOUDY     7  -2  68 NW13G28   30.21R WCI -10
BELLAIRE       LGT SNOW   7   0  72 N9        30.21R WCI  -7
CADILLAC       LGT SNOW   5  -1  74 NW14G21   30.13R WCI -12
CHARLEVOIX     LGT SNOW   8   1  70 NW17G33   30.22R WCI -10
FRANKFORT      LGT SNOW   7  -1  67 NW17G25   30.27R WCI -11
GAYLORD        SNOW       3  -2  79 N6G20     30.09R VSB 1/2 WCI  -8
GRAYLING       MOCLDY     3  -5  68 NW16G24   30.12R WCI -16
HARBOR SPRINGS LGT SNOW   5  -3  69 NW15G21   30.18R WCI -13
HOUGHTON LAKE  CLOUDY     4  -5  66 NW13G28   30.12R WCI -13
MANISTEE       CLOUDY     9   0  66 NW18G25   30.26R VSB 3/4 WCI -10
OSCODA         CLEAR      5 -10  50 NW20      30.11R WCI -15
PELLSTON       MOCLDY     3  -5  69 NW16G24   30.18R BLWGSNOWWCI -16
ROGERS CITY    CLOUDY     5  -7  58 NW20G30   30.14R HAZE    WCI -15
TRAVERSE CITY  SNOW       7   3  84 NW15G24   30.22R VSB 1/2 WCI -10
$$
MIZ007>008-015-130200-
EASTERN UPPER MICHIGAN

CITY           SKY/WX    TMP DP  RH WIND       PRES   REMARKS
KINROSS        CLOUDY    -2  -6  84 N13G18    30.15R VSB 1   WCI -21
MACKINAC ISLAN MOCLDY     1  -6  71 NW15G24   30.16R WCI -18
NEWBERRY       LGT SNOW   3  -2  81 NW12G17   30.16R WCI -14
S. S. MARIE    CLEAR     -6 -18  56 N14G22    30.16R WCI -26
MUNISING         N/A      6   1  80 N21G38    30.24R WCI -14
$$
MIZ004>006-011>014-085-130200-
CENTRAL UPPER MICHIGAN

CITY           SKY/WX    TMP DP  RH WIND       PRES   REMARKS
MANISTIQUE     LGT SNOW   1  -4  79 NW13G20   30.22R WCI -16
ESCANABA       CLEAR      0 -17  46 NW13G20   30.29S WCI -18
MENOMINEE      CLEAR      1 -13  51 NW12G17   30.34R WCI -15
SAWYER-GWINN   LGT SNOW  -4  -9  77 NW10      30.23R WCI -21
$$
MIZ001>003-009>011-084-130200-
WESTERN UPPER MICHIGAN

CITY           SKY/WX    TMP DP  RH WIND       PRES   REMARKS
IRON MOUNTAIN  CLEAR     -2 -12  62 NW9       30.27R WCI -18
HOUGHTON       LGT SNOW   2  -5  72 NW16G24   30.29R WCI -18
COPPER HARBOR    N/A      6  -1  73 N25G38    30.29R WCI -16
IRONWOOD       CLOUDY     1  -2  85 NW16      30.34S WCI -18
$$

ABBREVIATIONS USED IN REMARKS
   TC - TEMPERATURE IN CELSIUS
  WCI - WIND CHILL INDEX
   HX - HEAT INDEX
  VSB - VISIBILITY




USA.gov is the U.S. government's official web portal to all federal, state and local government web resources and services.